Home   Weather   Philadelphia   Past weeks

Flag for USA Past Weather in Philadelphia, Pennsylvania, USA — Yesterday and Last 2 Weeks

Now
52 °F

Fog.


Feels Like: 50 °F
Forecast: 54 / 81 °F
Wind: 7 mph from Northeast

Location: Philadelphia International Airport

Current Time: May 1, 2017 at 2:22:45 am

Latest Report: May 1, 2017 at 1:54 am


Visibility: 6 mi

Pressure: 30.07 "Hg

Humidity: 93%

Dew Point: 50 °F

Location of PhiladelphiaLocation

Past Weather in Philadelphia — Graph

°F

Philadelphia Temperature Yesterday

Maximum temperature yesterday: 74 °F (at 3:54 pm)
Minimum temperature yesterday: 52 °F (at 10:54 pm)
Average temperature yesterday: 64 °F

High & Low Weather Summary for the Past Weeks

 TemperatureHumidityPressure
High87 °F (Apr 29, 2:54 pm)97% (Apr 26, 2:54 am)30.50 "Hg (Apr 26, 2:54 am)
Low46 °F (Apr 19, 4:05 am)25% (Apr 17, 5:54 pm)29.70 "Hg (Apr 26, 5:54 am)
Average61 °F72%30.02 "Hg
* Reported Apr 16 1:54 am — May 1 1:23 am, Philadelphia, Weather by CustomWeather, © 2017

Note: Actual official high and low records may vary slightly from our data, if they occured in-between our weather recording intervals... More about our weather records

Advertising

Philadelphia Weather History for the Previous 24 Hours

Scroll right to see more
 ConditionsComfort  
Time TempWeatherWind HumidityBarometerVisibility
1:23 am
Mon, May 1
52 °FFog.9 mph93%30.09 "Hg4 mi
12:54 am52 °FLow clouds.9 mph93%30.10 "Hg7 mi
12:32 am52 °FLow clouds.8 mph89%30.11 "Hg8 mi
12:03 am52 °FLow clouds.8 mph89%30.12 "Hg10 mi
10:54 pm
Sun, Apr 30
52 °FLow clouds.9 mph89%30.12 "Hg10 mi
10:41 pm53 °FLow clouds.12 mph86%30.12 "Hg10 mi
9:54 pm53 °FLow clouds.13 mph86%30.12 "Hg10 mi
9:44 pm53 °FLow clouds.10 mph86%30.13 "Hg10 mi
8:54 pm54 °FOvercast.13 mph80%30.15 "Hg10 mi
7:54 pm56 °FOvercast.14 mph75%30.12 "Hg10 mi
7:23 pm57 °FMostly cloudy.18 mph72%30.14 "Hg10 mi
6:54 pm60 °FOvercast.16 mph67%30.14 "Hg10 mi
6:21 pm63 °FOvercast.17 mph63%30.13 "Hg10 mi
5:54 pm66 °FOvercast.15 mph56%30.13 "Hg10 mi
4:54 pm71 °FOvercast.15 mph47%30.10 "Hg10 mi
3:54 pm74 °FPartly sunny.12 mph48%30.11 "Hg10 mi
2:54 pm72 °FOvercast.8 mph46%30.14 "Hg10 mi
1:54 pm72 °FPartly sunny.12 mph41%30.14 "Hg10 mi
12:54 pm70 °FPartly sunny.12 mph42%30.16 "Hg10 mi
11:54 am68 °FOvercast.14 mph45%30.19 "Hg10 mi
10:54 am69 °FOvercast.13 mph49%30.18 "Hg10 mi
9:54 am67 °FOvercast.13 mph59%30.20 "Hg10 mi
8:54 am65 °FOvercast.7 mph56%30.20 "Hg10 mi
7:54 am65 °FOvercast.10 mph59%30.18 "Hg10 mi
6:54 am66 °FOvercast.10 mph56%30.16 "Hg10 mi
5:54 am65 °FPassing clouds.8 mph68%30.14 "Hg10 mi
4:54 am66 °FPartly cloudy.9 mph68%30.14 "Hg10 mi
3:54 am68 °FPassing clouds.7 mph65%30.13 "Hg10 mi
2:54 am68 °FPassing clouds.10 mph68%30.11 "Hg10 mi
Weather by CustomWeather, © 2017

See weather overviewHow to use our weather pages